Regional Weather Roundup
Issued by NWS

Home | Current Version | Previous Version | Graphics & Text | Print | Product List | Glossary On
Versions: 1 2 3 4 5 6 7 8 9 10 11 12 13 14 15 16 17 18 19 20 21 22 23 24 25 26 27 28 29 30 31 32 33 34 35 36 37 38 39 40 41 42 43 44 45 46 47 48 49 50
000
ASUS43 KLOT 050200
RWRIL

ILLINOIS REGIONAL WEATHER ROUNDUP
NATIONAL WEATHER SERVICE CHICAGO/ROMEOVILLE IL
900 PM CDT SAT JUL 04 2015

NOTE: "FAIR" INDICATES FEW OR NO CLOUDS BELOW 12,000 FEET WITH NO
SIGNIFICANT WEATHER AND/OR OBSTRUCTIONS TO VISIBILITY.

* THESE STATIONS ARE NOT UNDER NWS QUALITY CONTROL. THEY ALSO MAY NOT
  REPORT WEATHER SUCH AS PRECIPITATION OR FOG.

ILZ001-002-007-009-015-016-024-050300-
NORTHWEST ILLINOIS

CITY           SKY/WX    TMP DP  RH WIND       PRES   REMARKS
MOLINE         CLEAR     69  63  81 S5        29.98S
STERLING*      CLEAR     66  63  88 CALM      30.00R
$$

ILZ003-004-008-010-011-017-018-050300-
NORTH CENTRAL ILLINOIS

CITY           SKY/WX    TMP DP  RH WIND       PRES   REMARKS
ROCKFORD       CLEAR     72  63  73 S3        30.01R
$$

ILZ005-006-012>014-019>023-050300-
NORTHEAST ILLINOIS

CITY           SKY/WX    TMP DP  RH WIND       PRES   REMARKS
CHICAGO-OHARE  CLEAR     73  56  54 E8        29.99R
CHICAGO-MIDWAY CLEAR     74  57  55 E8        30.00R
AURORA         CLEAR     71  61  70 S3        30.01R
LANSING*       CLEAR     73  57  57 E3        30.01R
WAUKEGAN       CLEAR     64  56  75 CALM      29.99R
DUPAGE AIRPORT CLEAR     71  62  73 S3        30.00R
WHEELING       CLEAR     71  55  56 CALM      30.00S
NORTHERLY ISL    N/A     66  58  75 CALM        N/A
$$

LMZ740>746-050300-
SOUTHERN LAKE MICHIGAN

STATION/POSITION SKY/WX   TEMP    WIND        PRES    VSBY  WAVE
                          AIR SEA DIR/SP/G                  HT/PER
                          (F)     (DEG/KT/KT) (MB)    (MI)  (FT/S)
HARRISON CRIB              67     120/  4/  6   N/A
BURNHAM HARBOR             67     130/  2       N/A
CALUMET HARBOR             69      30/  3/  4   N/A
BURNS HARBOR               70      70/  8/  9 1016.3R
MICHIGAN CITY              72      40/  8/  8   N/A
MICHIGAN CITY 6N           67 65   90/  6/  6   N/A           1
ST. JOSEPH                 67 65                N/A           0
$$

ILZ025>027-034>036-040-047-049-050-058-095>099-050300-
WEST-CENTRAL ILLINOIS

CITY           SKY/WX    TMP DP  RH WIND       PRES   REMARKS
QUINCY         CLEAR     75  61  61 E6        29.99R
MACOMB*        CLEAR     69  66  90 E5        30.02R
$$

ILZ028>032-037-038-041>044-048-051>054-059>061-050300-
CENTRAL ILLINOIS

CITY           SKY/WX    TMP DP  RH WIND       PRES   REMARKS
DECATUR        MOCLDY    72  63  73 SE3       30.02R
PEORIA         CLEAR     74  61  63 CALM      30.01R
SPRINGFIELD    MOCLDY    75  65  70 SE5       30.01R
TAYLORVILLE    NOT AVBL
$$

ILZ033-039-045-046-055>057-062-063-050300-
EAST-CENTRAL ILLINOIS

CITY           SKY/WX    TMP DP  RH WIND       PRES   REMARKS
CHAMPAIGN      CLEAR     68  64  87 S3        30.03R
MATTOON        CLEAR     70  64  81 CALM      30.01R
$$

ILZ079-100>102-050300-
SOUTHWEST ILLINOIS

CITY           SKY/WX    TMP DP  RH WIND       PRES   REMARKS
BELLEVILLE     CLEAR     73  67  83 NE2       29.98S
CAHOKIA*       CLEAR     73  67  81 E3        29.99R
SPARTA*        PTCLDY    73  65  74 NE5       30.00S
$$

ILZ064>066-069>071-074>076-080>082-084>086-088>090-092>094-050300-
SOUTH-CENTRAL ILLINOIS

CITY           SKY/WX    TMP DP  RH WIND       PRES   REMARKS
CARBONDALE     MOCLDY    73  68  84 CALM      29.98S
MT. VERNON     MOCLDY    70  63  78 CALM      30.00S
SALEM*         PTCLDY    72  68  86 CALM      30.01R
$$

ILZ067-068-072-073-078-083-087-091-050300-
SOUTHEAST ILLINOIS

CITY           SKY/WX    TMP DP  RH WIND       PRES   REMARKS
LAWRENCEVILLE  CLOUDY    72  68  87 NE7       30.00R
HARRISBURG*    CLOUDY    73  72  96 CALM      30.00S FOG
$$

ABBREVIATIONS USED IN REMARKS
   TC - TEMPERATURE IN CELSIUS
  WCI - WIND CHILL INDEX
   HX - HEAT INDEX
  VSB - VISIBILITY
$$




USA.gov is the U.S. government's official web portal to all federal, state and local government web resources and services.